TimeMDT,TemperatureF,Dew PointF,Humidity,Sea Level PressureIn,VisibilityMPH,Wind Direction,Wind SpeedMPH,Gust SpeedMPH,PrecipitationIn,Events,Conditions,WindDirDegrees,DateUTC
12:53 AM,61.0,55.0,81,29.97,10.0,SE,9.2,-,N/A,,Overcast,130,2013-07-08 06:53:00
1:20 AM,62.6,55.4,77,30.10,10.0,SE,8.1,-,N/A,Thunderstorm,Overcast,140,2013-07-08 07:20:00
1:37 AM,62.6,55.4,77,30.08,10.0,SE,8.1,-,N/A,,Overcast,140,2013-07-08 07:37:00
1:53 AM,63.0,54.0,72,29.94,10.0,SE,12.7,-,N/A,,Scattered Clouds,130,2013-07-08 07:53:00
2:53 AM,63.0,53.1,70,29.91,10.0,SSW,3.5,-,N/A,,Mostly Cloudy,200,2013-07-08 08:53:00
3:53 AM,61.0,54.0,78,29.91,10.0,SSE,11.5,-,N/A,,Clear,160,2013-07-08 09:53:00
4:53 AM,63.0,54.0,72,29.91,10.0,South,16.1,-,N/A,,Mostly Cloudy,170,2013-07-08 10:53:00
5:53 AM,62.1,55.0,78,29.93,10.0,South,13.8,-,N/A,,Mostly Cloudy,180,2013-07-08 11:53:00
6:53 AM,64.0,57.0,78,29.90,10.0,South,19.6,24.2,N/A,,Clear,170,2013-07-08 12:53:00
7:53 AM,64.9,57.9,78,29.94,10.0,South,16.1,-,N/A,,Partly Cloudy,170,2013-07-08 13:53:00
8:53 AM,68.0,57.9,70,29.96,10.0,SSE,13.8,-,N/A,,Mostly Cloudy,160,2013-07-08 14:53:00
9:53 AM,71.1,60.1,68,29.94,10.0,SSE,13.8,-,N/A,,Mostly Cloudy,160,2013-07-08 15:53:00
10:53 AM,75.9,62.1,62,29.91,10.0,SSE,12.7,-,N/A,,Clear,160,2013-07-08 16:53:00
11:53 AM,78.1,62.1,58,29.92,10.0,South,11.5,-,N/A,,Clear,180,2013-07-08 17:53:00
12:53 PM,81.0,61.0,50,29.90,10.0,Variable,6.9,-,N/A,,Clear,0,2013-07-08 18:53:00
1:53 PM,82.0,59.0,45,29.88,10.0,SE,10.4,-,N/A,,Clear,140,2013-07-08 19:53:00
2:53 PM,84.0,55.0,37,29.86,10.0,SE,8.1,-,N/A,,Clear,140,2013-07-08 20:53:00
3:53 PM,87.1,54.0,32,29.85,10.0,ENE,5.8,-,N/A,,Clear,70,2013-07-08 21:53:00
4:53 PM,86.0,51.1,30,29.83,10.0,SE,4.6,-,N/A,,Clear,130,2013-07-08 22:53:00
5:53 PM,82.9,54.0,37,29.80,10.0,ESE,6.9,-,N/A,,Clear,120,2013-07-08 23:53:00
6:53 PM,84.9,37.9,19,29.81,10.0,NW,21.9,27.6,N/A,,Mostly Cloudy,310,2013-07-09 00:53:00
7:20 PM,78.8,50.0,36,29.97,10.0,West,12.7,-,0.00,Thunderstorm,Mostly Cloudy,270,2013-07-09 01:20:00
7:41 PM,78.8,51.8,39,29.98,10.0,ENE,3.5,-,0.00,,Clear,60,2013-07-09 01:41:00
7:53 PM,78.1,52.0,40,29.84,10.0,Calm,Calm,-,0.00,,Clear,0,2013-07-09 01:53:00
8:53 PM,73.0,55.0,53,29.91,10.0,North,20.7,27.6,N/A,,Partly Cloudy,350,2013-07-09 02:53:00
9:11 PM,69.8,51.8,53,30.08,10.0,NNE,26.5,32.2,N/A,,Mostly Cloudy,20,2013-07-09 03:11:00
9:30 PM,66.2,51.8,60,30.10,10.0,North,11.5,-,N/A,Thunderstorm,Scattered Clouds,10,2013-07-09 03:30:00
9:53 PM,64.0,52.0,65,30.01,10.0,NNE,10.4,-,N/A,,Clear,30,2013-07-09 03:53:00
10:53 PM,61.0,54.0,78,30.00,10.0,East,5.8,-,N/A,,Partly Cloudy,90,2013-07-09 04:53:00
11:53 PM,59.0,54.0,83,29.97,10.0,Calm,Calm,-,N/A,,Clear,0,2013-07-09 05:53:00